[[{"header":{"parameterUnit":"m.s-1","parameterCategory":2,"la1":30.2991,"la2":30.254,"lo1":-89.0895,"lo2":-89.0444,"dy":0.0017,"dx":0.0017,"nx":28,"ny":28,"refTime":"2025-02-28T09:00:00:Z","depth":"0","parameterNumber":2,"parameterNumberName":"U-component_of_CURRENTS"},"data":[0,0,0,0,0,0,0,0,0,0,0,0,0,0,0,0,0,0,0,0,0,0,0,0,0,0,0,0,0,0,0,0,0,0,0,0,0,0,0,0,0,0,0,0,0,0,0,0,0,0,0,0,0,0,0,0,0,0,0.1987,0.1987,0,0.1941,0.194,0.1939,0.1891,0.1891,0.189,0.189,0.1895,0.1895,0.1896,0,0,0,0,0,0,0,0,0,0,0,0,0,0.2013,0.2013,0.1987,0.1987,0.1986,0.1941,0.194,0.1939,0.1891,0.1891,0.189,0.189,0.1895,0.1895,0.1896,0,0,0,0,0,0,0,0,0,0,0,0,0,0.1985,0.2012,0.1987,0.1959,0.1956,0.1941,0.194,0.1939,0.1891,0.1891,0.189,0.1889,0.1894,0.1895,0.1896,0.1914,0,0,0.1899,0.1899,0,0,0,0,0,0,0,0,0.1987,0.1984,0.1963,0.1961,0.1958,0.1923,0.1951,0.1934,0.1892,0.1913,0.189,0.1889,0.1911,0.191,0.1899,0.1915,0.1915,0.1899,0.1899,0.1899,0.19,0,0,0,0,0,0,0,0.1989,0.1986,0.1966,0.1963,0.196,0.1941,0.1936,0.1947,0.1916,0.1912,0.1909,0.1907,0.1909,0.1898,0.1899,0.1915,0.1899,0.1899,0.19,0.19,0.1967,0.1968,0,0,0,0,0,0,0.2001,0.1988,0.1968,0.1965,0.1974,0.1941,0.1936,0.1933,0.1914,0.1911,0.1908,0.1905,0.1897,0.1898,0.1899,0.1943,0.1899,0.19,0.1901,0.1966,0.1967,0.1969,0,0,0,0,0,0,0.2002,0.2,0.197,0.1977,0.1972,0.1942,0.1939,0.1932,0.1922,0.1911,0.1909,0.1904,0.1897,0.1898,0.1914,0.1942,0.1901,0.1901,0.1964,0.1966,0.1968,0.2015,0,0,0,0,0,0,0.2003,0.2,0.2003,0.1978,0.1973,0.1972,0.1939,0.1932,0.1923,0.1919,0.1908,0.1907,0.1896,0.1913,0.1915,0.1942,0.1902,0.1962,0.1965,0.1967,0.2012,0.2019,0.2024,0,0,0,0,0,0.2004,0.2016,0.2004,0.2002,0.1977,0.1973,0.1969,0.1943,0.1924,0.1929,0.1918,0.1908,0.193,0.1914,0.1916,0.1945,0.1961,0.1964,0.1967,0.2009,0.2017,0.2024,0,0,0,0,0,0,0.2037,0.2012,0.1998,0.2003,0.1993,0.1966,0.1966,0.1949,0.1941,0.1934,0.1921,0.1921,0.1947,0.1941,0.1924,0.1972,0.1946,0.1949,0.1977,0.1985,0.199,0.198,0.1903,0,0,0,0,0,0.2045,0.2037,0.2021,0.2023,0.2021,0.1994,0.1988,0.197,0.1959,0.1953,0.1955,0.1954,0.1961,0.1967,0.1974,0.2,0.2006,0.2021,0.2027,0.2032,0.2026,0.2068,0.2077,0.1978,0.1978,0.1978,0,0,0.2055,0.2043,0.2036,0.2029,0.2014,0.2015,0.1988,0.1982,0.1985,0.1959,0.1976,0.1977,0.1973,0.1998,0.201,0.1996,0.2066,0.2036,0.204,0.203,0.2072,0.2081,0.209,0.198,0.198,0.1979,0,0,0.207,0.2064,0.206,0.2056,0.2042,0.2032,0.2035,0.2021,0.2018,0.2032,0.2017,0.2034,0.2048,0.2051,0.2052,0.2098,0.2097,0.2106,0.2128,0.217,0.2178,0.2185,0.2215,0.2225,0.2109,0.2109,0.2109,0,0.209,0.208,0.2062,0.2064,0.2065,0.2044,0.2051,0.2048,0.2045,0.2047,0.2046,0.2068,0.2072,0.2092,0.2107,0.2112,0.2129,0.2099,0.2178,0.2185,0.2192,0.222,0.223,0.2111,0.2111,0.2111,0.2111,0,0.2101,0.2095,0.2099,0.209,0.2092,0.2098,0.2093,0.2101,0.2101,0.2094,0.2121,0.2131,0.2137,0.2154,0.2142,0.2192,0.2187,0.2181,0.2158,0.2204,0.2232,0.2241,0.2115,0.2114,0.2113,0.2113,0,0,0.2153,0.2113,0.2117,0.2107,0.2108,0.2108,0.2125,0.213,0.2126,0.215,0.216,0.2191,0.2187,0.2188,0.2191,0.2229,0.23,0.2226,0.2227,0.2252,0.239,0.2253,0.225,0.2312,0.2314,0.2315,0.2393,0,0.2175,0.2169,0.2151,0.2155,0.2155,0.2146,0.2155,0.2154,0.2158,0.2167,0.2185,0.2195,0.2203,0.2206,0.225,0.2276,0.2326,0.2279,0.2342,0.2344,0.2215,0.2257,0.2073,0.2115,0.2402,0.2404,0.2405,0,0.2209,0.2193,0.2193,0.2167,0.2168,0.2171,0.2175,0.2176,0.2178,0.2178,0.2195,0.2199,0.2244,0.2249,0.2339,0.2309,0.2356,0.2387,0.2391,0.2247,0.2224,0.2114,0.2122,0.1998,0.2419,0.2418,0.2417,0,0.2249,0.2235,0.223,0.2227,0.2194,0.2196,0.2189,0.2183,0.2172,0.2183,0.2176,0.2225,0.2239,0.2317,0.2359,0.2364,0.245,0.2467,0.2397,0.2388,0.2232,0.2205,0.2119,0.2552,0.2551,0.2551,0.2551,0,0.2289,0.2286,0.2244,0.2234,0.2223,0.2208,0.2199,0.2187,0.2176,0.2151,0.218,0.2175,0.2258,0.23,0.2368,0.2385,0.2462,0.2399,0.2397,0.2242,0.2217,0.21,0.2058,0.2554,0.2553,0.2553,0.2552,0,0.2318,0.2301,0.2271,0.2232,0.223,0.2214,0.2185,0.2166,0.2161,0.2136,0.2137,0.2151,0.2182,0.2248,0.2351,0.2363,0.2311,0.2412,0.2207,0.2177,0.1965,0.1933,0.1833,0.181,0.2352,0.2349,0.2347,0,0.2326,0.2317,0.2256,0.2229,0.2207,0.2191,0.217,0.2158,0.2135,0.2111,0.2093,0.2105,0.2085,0.2151,0.2157,0.2215,0.2193,0.2096,0.2065,0.1913,0.1879,0.1855,0.1844,0.1902,0.1896,0.1891,0.1887,0,0.2318,0.229,0.2242,0.2188,0.216,0.2128,0.2105,0.2093,0.2068,0.2037,0.1995,0.1978,0.1967,0.1884,0.1906,0.1941,0.1908,0.1995,0.1903,0.1556,0.1461,0.1448,0.1896,0.1844,0.1848,0.1851,0.1854,0.1855,0.2287,0.2242,0.2173,0.2115,0.2085,0.2045,0.1989,0.1977,0.1925,0.1825,0.1874,0.1757,0.165,0.1618,0.1636,0.1461,0.1605,0.1415,0.1408,0.1414,0.1306,0.1633,0.1527,0.1529,0.1531,0.1533,0.1535,0,0.2208,0.2163,0.2109,0.2012,0.1941,0.1957,0.1909,0.1827,0.1735,0.1674,0.1598,0.1369,0.1221,0.1148,0.095,0.0873,0.0923,0.0853,0.0785,0.0829,0.1159,0.1047,0.0748,0.0748,0.0749,0.0749,0.0749,0.0749,0.2149,0.2064,0.2022,0.1877,0.1821,0.1695,0.1642,0.1551,0.1476,0.1262,0.1083,0.1002,0.0802,0.0504,0.0321,0.0352,0.0363,0.0296,0.0424,0.0615,0.0668,0.0718,0.0602,0.0215,0.0214,0.0047,0.0044,0.0043]},{"header":{"parameterUnit":"m.s-1","parameterCategory":2,"la1":30.2991,"la2":30.254,"lo1":-89.0895,"lo2":-89.0444,"dy":0.0017,"dx":0.0017,"nx":28,"ny":28,"refTime":"2025-02-28T09:00:00:Z","depth":"0","parameterNumber":3,"parameterNumberName":"V-component_of_CURRENTS"},"data":[0,0,0,0,0,0,0,0,0,0,0,0,0,0,0,0,0,0,0,0,0,0,0,0,0,0,0,0,0,0,0,0,0,0,0,0,0,0,0,0,0,0,0,0,0,0,0,0,0,0,0,0,0,0,0,0,0,0,-0.1008,-0.1007,0,-0.0913,-0.0912,-0.0911,-0.0855,-0.0855,-0.0855,-0.0855,-0.0826,-0.0826,-0.0825,0,0,0,0,0,0,0,0,0,0,0,0,0,-0.1086,-0.1085,-0.1008,-0.1007,-0.1006,-0.0914,-0.0912,-0.0911,-0.0855,-0.0855,-0.0855,-0.0855,-0.0827,-0.0826,-0.0825,0,0,0,0,0,0,0,0,0,0,0,0,0,-0.1026,-0.1085,-0.1008,-0.0969,-0.0965,-0.0914,-0.0912,-0.091,-0.0855,-0.0855,-0.0855,-0.0855,-0.0827,-0.0826,-0.0825,-0.082,0,0,-0.0822,-0.0821,0,0,0,0,0,0,0,0,-0.1029,-0.1023,-0.0976,-0.0972,-0.0967,-0.0898,-0.0929,-0.0884,-0.0855,-0.0895,-0.0855,-0.0855,-0.0858,-0.0854,-0.0833,-0.0818,-0.0817,-0.0821,-0.0821,-0.082,-0.082,0,0,0,0,0,0,0,-0.1034,-0.1026,-0.0969,-0.0975,-0.0969,-0.0937,-0.0929,-0.0919,-0.0878,-0.0891,-0.0887,-0.088,-0.0856,-0.0834,-0.0832,-0.0817,-0.0821,-0.0821,-0.082,-0.0819,-0.0738,-0.0737,0,0,0,0,0,0,-0.1052,-0.1031,-0.0972,-0.0966,-0.1001,-0.0936,-0.0927,-0.0918,-0.0876,-0.0869,-0.088,-0.0878,-0.0836,-0.0833,-0.0831,-0.0792,-0.082,-0.0819,-0.0819,-0.074,-0.0738,-0.0736,0,0,0,0,0,0,-0.1054,-0.1048,-0.0976,-0.0998,-0.0987,-0.0936,-0.0926,-0.0917,-0.0892,-0.0867,-0.0862,-0.0866,-0.0835,-0.0832,-0.0813,-0.0792,-0.0819,-0.0818,-0.0741,-0.0739,-0.0737,-0.0735,0,0,0,0,0,0,-0.1057,-0.1049,-0.1045,-0.0999,-0.0986,-0.0942,-0.0926,-0.0915,-0.0889,-0.0884,-0.0853,-0.085,-0.0835,-0.0815,-0.0812,-0.0791,-0.0817,-0.0743,-0.074,-0.0738,-0.0737,-0.0733,-0.073,0,0,0,0,0,-0.106,-0.1053,-0.1046,-0.1038,-0.0984,-0.0942,-0.0932,-0.0894,-0.0888,-0.0872,-0.0851,-0.0851,-0.0794,-0.0813,-0.081,-0.0789,-0.0745,-0.0741,-0.0738,-0.0739,-0.0734,-0.073,0,0,0,0,0,0,-0.1085,-0.1045,-0.1037,-0.1018,-0.0984,-0.0933,-0.0915,-0.0896,-0.0864,-0.0859,-0.0844,-0.0838,-0.081,-0.0799,-0.082,-0.0753,-0.0765,-0.076,-0.0766,-0.0762,-0.0758,-0.0755,-0.0816,0,0,0,0,0,-0.1091,-0.1071,-0.1035,-0.1018,-0.1005,-0.0963,-0.0941,-0.0913,-0.0882,-0.0866,-0.0855,-0.0827,-0.0792,-0.0779,-0.0755,-0.073,-0.0709,-0.0707,-0.0704,-0.0701,-0.0694,-0.0646,-0.0638,-0.0725,-0.0725,-0.0725,0,0,-0.1089,-0.1071,-0.1055,-0.1021,-0.0992,-0.096,-0.0948,-0.0911,-0.088,-0.0872,-0.0842,-0.0823,-0.0783,-0.0746,-0.0731,-0.0735,-0.0664,-0.0697,-0.0695,-0.0689,-0.0641,-0.0633,-0.0626,-0.0723,-0.0723,-0.0723,0,0,-0.1074,-0.1068,-0.1042,-0.1017,-0.0978,-0.0954,-0.0948,-0.0906,-0.0885,-0.0854,-0.0831,-0.08,-0.0767,-0.0725,-0.0699,-0.0661,-0.0649,-0.0651,-0.063,-0.0584,-0.0577,-0.057,-0.0534,-0.0525,-0.0646,-0.0646,-0.0646,0,-0.108,-0.1046,-0.1028,-0.1001,-0.0979,-0.0955,-0.0922,-0.0894,-0.0852,-0.083,-0.0844,-0.0767,-0.0749,-0.0675,-0.0658,-0.0653,-0.063,-0.0656,-0.0581,-0.0574,-0.0567,-0.0532,-0.0521,-0.0646,-0.0646,-0.0646,-0.0646,0,-0.1042,-0.1015,-0.1001,-0.0961,-0.0936,-0.0906,-0.0871,-0.0849,-0.0837,-0.0804,-0.0753,-0.0729,-0.0678,-0.0664,-0.0651,-0.0583,-0.0584,-0.0588,-0.0599,-0.0558,-0.0523,-0.0512,-0.0645,-0.0645,-0.0645,-0.0646,0,0,-0.1058,-0.0988,-0.0985,-0.0954,-0.0915,-0.0885,-0.0846,-0.0795,-0.0758,-0.0735,-0.0687,-0.0635,-0.0628,-0.0597,-0.058,-0.0543,-0.0483,-0.0547,-0.0545,-0.0523,-0.0385,-0.0361,-0.0347,-0.0478,-0.0476,-0.0474,-0.0381,0,-0.1038,-0.098,-0.0952,-0.0894,-0.086,-0.0832,-0.0795,-0.0744,-0.0715,-0.0671,-0.0633,-0.0586,-0.0598,-0.0576,-0.054,-0.0491,-0.0453,-0.0508,-0.0417,-0.0414,-0.0407,-0.0333,-0.0295,-0.0207,-0.037,-0.0368,-0.0367,0,-0.1016,-0.0976,-0.0916,-0.0849,-0.0834,-0.0801,-0.074,-0.07,-0.0631,-0.0608,-0.0561,-0.0538,-0.0471,-0.0502,-0.0402,-0.0437,-0.041,-0.0384,-0.038,-0.0349,-0.0368,-0.027,-0.018,-0.0159,-0.035,-0.0351,-0.0353,0,-0.1023,-0.0957,-0.0909,-0.0886,-0.0806,-0.0778,-0.0746,-0.0679,-0.0634,-0.0569,-0.053,-0.0466,-0.0419,-0.0378,-0.0323,-0.036,-0.0217,-0.0261,-0.0213,-0.0212,-0.0156,-0.0153,-0.0042,-0.0193,-0.0193,-0.0193,-0.0193,0,-0.1012,-0.0973,-0.0909,-0.0871,-0.0813,-0.0773,-0.0712,-0.0666,-0.06,-0.0519,-0.0501,-0.0427,-0.0386,-0.0304,-0.0285,-0.0192,-0.018,-0.0186,-0.0173,-0.0154,-0.0152,-0.0113,-0.0112,-0.019,-0.019,-0.0191,-0.0192,0,-0.1005,-0.0971,-0.0892,-0.0815,-0.0803,-0.0753,-0.0691,-0.0633,-0.0589,-0.0486,-0.0462,-0.037,-0.0259,-0.0212,-0.0119,-0.0122,-0.0016,-0.0033,-0.0017,-0.0004,0.0024,0.0024,0.0186,0.0217,0.0023,0.0025,0.0026,0,-0.099,-0.0953,-0.0849,-0.08,-0.0761,-0.0711,-0.0665,-0.0624,-0.0557,-0.0433,-0.0363,-0.0251,-0.0135,-0.0,0.0032,0.0093,0.0087,0.0126,0.0057,0.0061,0.007,0.0079,0.0093,0.0131,0.0133,0.0134,0.0136,0,-0.0947,-0.0906,-0.0827,-0.0726,-0.0669,-0.0606,-0.0543,-0.0504,-0.0425,-0.0338,-0.0183,-0.0092,0.0033,0.014,0.0194,0.0206,0.0169,0.0157,0.0174,0.0188,0.0197,0.022,0.0018,0.015,0.0148,0.0147,0.0147,0.0146,-0.0903,-0.0831,-0.0722,-0.0625,-0.0556,-0.0468,-0.0417,-0.0348,-0.024,-0.0094,-0.0038,0.0113,0.0204,0.0296,0.0309,0.0321,0.0298,0.0295,0.0302,0.0315,0.0336,0.0159,0.029,0.029,0.0289,0.0289,0.0288,0,-0.0807,-0.0732,-0.0635,-0.0494,-0.0394,-0.039,-0.0297,-0.0242,-0.0109,0.0011,0.0139,0.0301,0.0409,0.0437,0.0467,0.0466,0.0452,0.0457,0.0474,0.0483,0.0347,0.0338,0.0472,0.0472,0.0472,0.0472,0.0472,0.0472,-0.0744,-0.0619,-0.0557,-0.0365,-0.0286,-0.0175,-0.0122,-0.005,0.003,0.0192,0.03,0.0365,0.0415,0.0565,0.06,0.0586,0.0605,0.062,0.0616,0.0497,0.0482,0.0467,0.046,0.0617,0.0617,0.0762,0.0764,0.0765]}],[{"header":{"parameterUnit":"m.s-1","parameterCategory":2,"la1":30.2991,"la2":30.254,"lo1":-89.0895,"lo2":-89.0444,"dy":0.0017,"dx":0.0017,"nx":28,"ny":28,"refTime":"2025-02-28T09:00:00:Z","depth":"2","parameterNumber":2,"parameterNumberName":"U-component_of_CURRENTS"},"data":[0,0,0,0,0,0,0,0,0,0,0,0,0,0,0,0,0,0,0,0,0,0,0,0,0,0,0,0,0,0,0,0,0,0,0,0,0,0,0,0,0,0,0,0,0,0,0,0,0,0,0,0,0,0,0,0,0,0,0.0523,0.0523,0,0.0609,0.061,0.0612,0.0831,0.0835,0.0839,0.0842,0.0846,0.0843,0.0839,0,0,0,0,0,0,0,0,0,0,0,0,0,0.0533,0.0533,0.0523,0.0523,0.0523,0.0608,0.061,0.0613,0.0831,0.0835,0.084,0.0844,0.0847,0.0843,0.0839,0,0,0,0,0,0,0,0,0,0,0,0,0,0.0574,0.0533,0.0523,0.0635,0.0645,0.0608,0.0611,0.0613,0.083,0.0835,0.0841,0.0846,0.0849,0.0844,0.0839,0.0695,0,0,0.0823,0.0821,0,0,0,0,0,0,0,0,0.0571,0.0575,0.0618,0.0627,0.0638,0.0706,0.0615,0.0633,0.0828,0.077,0.0843,0.0849,0.0781,0.0782,0.0801,0.0695,0.0695,0.0823,0.0819,0.0817,0.0816,0,0,0,0,0,0,0,0.0568,0.0572,0.0567,0.0618,0.063,0.0675,0.0689,0.0621,0.0749,0.0776,0.0789,0.0781,0.0788,0.0805,0.0802,0.0695,0.0823,0.0818,0.0815,0.0813,0.0803,0.0805,0,0,0,0,0,0,0.0532,0.0569,0.0564,0.0569,0.0607,0.067,0.0685,0.0687,0.0752,0.0765,0.0776,0.0791,0.0811,0.0808,0.0803,0.0871,0.0817,0.0813,0.081,0.08,0.0803,0.0806,0,0,0,0,0,0,0.0532,0.0531,0.0561,0.0563,0.0569,0.0663,0.0664,0.0685,0.0748,0.0752,0.0767,0.0821,0.0816,0.081,0.0831,0.0864,0.081,0.0806,0.0797,0.0801,0.0805,0.0855,0,0,0,0,0,0,0.0532,0.0531,0.0544,0.056,0.0567,0.0603,0.0658,0.0683,0.0727,0.0749,0.0791,0.0797,0.082,0.0839,0.0826,0.0856,0.0802,0.0793,0.0799,0.0803,0.085,0.0861,0.087,0,0,0,0,0,0.0532,0.0548,0.0544,0.0544,0.0574,0.0603,0.0615,0.0705,0.0723,0.0777,0.0814,0.0798,0.0865,0.0835,0.082,0.0849,0.0791,0.0797,0.0803,0.0846,0.0858,0.0869,0,0,0,0,0,0,0.058,0.0569,0.0568,0.0584,0.0608,0.0639,0.0685,0.0698,0.0763,0.0792,0.0794,0.0802,0.085,0.083,0.0797,0.0873,0.0837,0.084,0.0875,0.0886,0.0896,0.0905,0.0797,0,0,0,0,0,0.0573,0.0581,0.0577,0.0594,0.0604,0.0627,0.065,0.0699,0.0735,0.0775,0.0788,0.0818,0.0847,0.0855,0.0878,0.0861,0.0872,0.0888,0.0898,0.0906,0.091,0.098,0.0996,0.0827,0.0827,0.0827,0,0,0.0592,0.0585,0.0592,0.0602,0.0627,0.0652,0.0665,0.0714,0.075,0.0746,0.0812,0.0837,0.0855,0.0905,0.0921,0.0896,0.096,0.0914,0.092,0.092,0.0989,0.1005,0.1019,0.0831,0.083,0.083,0,0,0.0629,0.0628,0.0648,0.0661,0.0684,0.0697,0.0705,0.0737,0.079,0.0813,0.0856,0.0906,0.0904,0.0962,0.0975,0.1029,0.1015,0.104,0.1077,0.1146,0.1159,0.1172,0.1198,0.1212,0.1037,0.1038,0.1038,0,0.0662,0.0667,0.0665,0.0684,0.0699,0.0711,0.0742,0.0774,0.0816,0.0842,0.0862,0.0932,0.0942,0.1008,0.1064,0.1048,0.1074,0.1022,0.1156,0.1169,0.1181,0.1205,0.122,0.1041,0.104,0.104,0.104,0,0.0698,0.0714,0.0732,0.0749,0.0771,0.0807,0.0821,0.0861,0.0884,0.0909,0.0985,0.102,0.108,0.1088,0.1086,0.1179,0.1166,0.1163,0.1118,0.12,0.1221,0.1235,0.1045,0.1044,0.1043,0.1042,0,0,0.0758,0.0757,0.0769,0.0779,0.0809,0.0828,0.0877,0.0923,0.0971,0.1011,0.1071,0.1136,0.1169,0.119,0.1205,0.1245,0.1344,0.1241,0.1243,0.1251,0.1479,0.1316,0.1316,0.1371,0.1374,0.1377,0.1455,0,0.0801,0.0828,0.0822,0.0868,0.0889,0.0903,0.0958,0.1001,0.1039,0.1102,0.1137,0.1211,0.1204,0.1252,0.13,0.1333,0.1388,0.1322,0.1412,0.1414,0.1246,0.133,0.1167,0.121,0.1469,0.1472,0.1473,0,0.0867,0.0856,0.0898,0.0926,0.0942,0.0975,0.105,0.1112,0.1189,0.1223,0.1288,0.131,0.1383,0.137,0.1478,0.144,0.1482,0.149,0.1494,0.1332,0.1278,0.1175,0.1227,0.1498,0.1496,0.1494,0.1492,0,0.092,0.0934,0.0961,0.0967,0.0995,0.1028,0.1079,0.116,0.1212,0.1315,0.1334,0.1434,0.1489,0.1551,0.1573,0.1551,0.1666,0.164,0.1531,0.1518,0.1389,0.1359,0.1745,0.1745,0.1745,0.1745,0.1745,0,0.0988,0.102,0.0984,0.0992,0.108,0.1083,0.1184,0.1266,0.132,0.1381,0.1424,0.1445,0.1543,0.159,0.1616,0.1607,0.1723,0.1548,0.1538,0.1399,0.137,0.1625,0.161,0.1748,0.1747,0.1746,0.1746,0,0.1102,0.1065,0.1122,0.1113,0.1118,0.1218,0.1253,0.1283,0.136,0.1426,0.1451,0.1492,0.1541,0.1593,0.1694,0.1645,0.1659,0.1642,0.144,0.1402,0.1451,0.1439,0.1511,0.1506,0.1502,0.1498,0.1496,0,0.118,0.1177,0.1227,0.1242,0.1248,0.1314,0.1323,0.1362,0.1358,0.1422,0.1424,0.1478,0.1466,0.1507,0.1461,0.1465,0.1593,0.1323,0.1233,0.1449,0.1434,0.1427,0.142,0.1097,0.1091,0.1086,0.1082,0,0.1257,0.1281,0.1283,0.1331,0.1336,0.1376,0.1372,0.1356,0.1377,0.1379,0.1362,0.1346,0.1323,0.1208,0.1201,0.1181,0.1292,0.1215,0.156,0.1146,0.1056,0.104,0.1049,0.1039,0.1044,0.1047,0.1049,0.1051,0.1333,0.1355,0.131,0.1367,0.1379,0.138,0.1356,0.1276,0.1259,0.1189,0.124,0.1127,0.1099,0.0916,0.0893,0.0863,0.0952,0.092,0.0938,0.0961,0.0864,0.0767,0.0678,0.068,0.0682,0.0684,0.0685,0,0.1364,0.131,0.1304,0.1322,0.13,0.1348,0.1295,0.1195,0.1088,0.1039,0.0974,0.0785,0.0659,0.0664,0.0502,0.0462,0.0499,0.0478,0.0534,0.0573,0.0609,0.0499,0.0215,0.0214,0.0213,0.0213,0,0,0.1346,0.1307,0.1238,0.1165,0.1183,0.1093,0.1054,0.0955,0.0866,0.0717,0.0601,0.0567,0.0566,0.0368,0.0339,0.0257,0.0425,0.0234,0.06,0.0702,0.0738,0.0836,0.0704,0,0,0,0,0]},{"header":{"parameterUnit":"m.s-1","parameterCategory":2,"la1":30.2991,"la2":30.254,"lo1":-89.0895,"lo2":-89.0444,"dy":0.0017,"dx":0.0017,"nx":28,"ny":28,"refTime":"2025-02-28T09:00:00:Z","depth":"2","parameterNumber":3,"parameterNumberName":"V-component_of_CURRENTS"},"data":[0,0,0,0,0,0,0,0,0,0,0,0,0,0,0,0,0,0,0,0,0,0,0,0,0,0,0,0,0,0,0,0,0,0,0,0,0,0,0,0,0,0,0,0,0,0,0,0,0,0,0,0,0,0,0,0,0,0,0.0573,0.0574,0,0.055,0.0549,0.0548,0.0329,0.0325,0.032,0.0316,0.0249,0.0252,0.0254,0,0,0,0,0,0,0,0,0,0,0,0,0,0.0508,0.0509,0.0573,0.0574,0.0575,0.055,0.0549,0.0548,0.033,0.0325,0.0319,0.0314,0.0249,0.0252,0.0254,0,0,0,0,0,0,0,0,0,0,0,0,0,0.0507,0.0509,0.0573,0.047,0.0461,0.0551,0.0549,0.0548,0.0331,0.0325,0.0318,0.0311,0.0248,0.0251,0.0255,0.0415,0,0,0.0266,0.0268,0,0,0,0,0,0,0,0,0.0507,0.0508,0.0485,0.0478,0.0468,0.0444,0.0502,0.0504,0.0333,0.0371,0.0316,0.0308,0.0322,0.0319,0.0317,0.0411,0.0409,0.0267,0.0269,0.027,0.0271,0,0,0,0,0,0,0,0.0507,0.0508,0.0554,0.0486,0.0476,0.0453,0.0443,0.0501,0.0377,0.0367,0.0353,0.0369,0.0315,0.0314,0.0314,0.0408,0.0266,0.027,0.0272,0.0273,0.0382,0.0383,0,0,0,0,0,0,0.0534,0.0509,0.0555,0.0555,0.0482,0.046,0.0449,0.0451,0.0376,0.0362,0.0374,0.0359,0.0311,0.031,0.0311,0.0311,0.027,0.0274,0.0276,0.0382,0.0382,0.0383,0,0,0,0,0,0,0.0532,0.0538,0.0556,0.0539,0.054,0.0469,0.0473,0.0454,0.0413,0.0385,0.0365,0.0348,0.0305,0.0305,0.03,0.0313,0.0276,0.0279,0.0381,0.0382,0.0383,0.043,0,0,0,0,0,0,0.053,0.0537,0.0532,0.0541,0.0543,0.0559,0.048,0.0459,0.0441,0.0418,0.0359,0.0346,0.03,0.0295,0.0304,0.0317,0.0282,0.038,0.0381,0.0382,0.0428,0.0433,0.0437,0,0,0,0,0,0.0528,0.0527,0.0532,0.0537,0.0543,0.0561,0.0557,0.0478,0.0446,0.0418,0.0374,0.0346,0.0307,0.03,0.031,0.0324,0.0379,0.0381,0.0382,0.0426,0.0432,0.0437,0,0,0,0,0,0,0.0477,0.0508,0.051,0.0514,0.0528,0.0525,0.0501,0.0495,0.0449,0.0412,0.0381,0.0367,0.036,0.0354,0.0346,0.0355,0.0333,0.0336,0.0362,0.0368,0.0373,0.0375,0.0285,0,0,0,0,0,0.0487,0.0493,0.0526,0.0531,0.0536,0.0538,0.0536,0.0498,0.0479,0.0447,0.0427,0.0399,0.0394,0.0382,0.0372,0.0418,0.0411,0.0424,0.0429,0.0433,0.044,0.0448,0.0454,0.0388,0.0388,0.0388,0,0,0.0474,0.0494,0.0496,0.0523,0.0522,0.054,0.0511,0.05,0.0506,0.0463,0.0445,0.0427,0.0409,0.0407,0.0406,0.0394,0.0447,0.0435,0.0438,0.0443,0.045,0.0457,0.0463,0.0389,0.0389,0.0389,0,0,0.0462,0.0468,0.0472,0.0492,0.0509,0.052,0.0526,0.0533,0.0502,0.0527,0.0478,0.0469,0.0481,0.0452,0.0448,0.0497,0.0473,0.0488,0.0517,0.0526,0.0531,0.0536,0.0533,0.0537,0.0488,0.0488,0.0488,0,0.0441,0.0465,0.0475,0.0493,0.0512,0.0519,0.0536,0.0539,0.0541,0.0547,0.0504,0.0521,0.0502,0.0519,0.0502,0.0509,0.05,0.0498,0.0533,0.0537,0.0541,0.0536,0.0541,0.049,0.049,0.049,0.049,0,0.0448,0.0463,0.0465,0.0499,0.0517,0.0527,0.0557,0.0564,0.0564,0.0575,0.0585,0.0566,0.055,0.0564,0.0546,0.0572,0.0552,0.054,0.052,0.0551,0.0544,0.0547,0.0494,0.0493,0.0492,0.0492,0,0,0.0409,0.046,0.0458,0.0482,0.052,0.0538,0.0567,0.0604,0.0602,0.0623,0.0645,0.0645,0.0615,0.0608,0.0592,0.0621,0.064,0.059,0.0589,0.0589,0.0647,0.0626,0.0627,0.0629,0.063,0.0631,0.0628,0,0.0408,0.0446,0.0474,0.0511,0.0536,0.0566,0.0576,0.0606,0.062,0.0638,0.0665,0.0647,0.0635,0.0601,0.0634,0.0644,0.0651,0.0641,0.0614,0.0614,0.0594,0.0631,0.0585,0.0579,0.0632,0.0632,0.0632,0,0.0392,0.044,0.0468,0.0516,0.0522,0.0531,0.0558,0.0555,0.0591,0.0596,0.0618,0.0625,0.0664,0.0638,0.0678,0.0666,0.0645,0.0667,0.0666,0.0633,0.0599,0.0557,0.0583,0.0638,0.0637,0.0637,0.0637,0,0.0352,0.042,0.0445,0.0468,0.0522,0.0523,0.0513,0.0528,0.053,0.054,0.0571,0.0601,0.0593,0.0629,0.0651,0.065,0.071,0.0703,0.0669,0.0667,0.0617,0.0609,0.0711,0.0711,0.0711,0.0711,0.0711,0,0.0331,0.0345,0.042,0.0437,0.0422,0.0459,0.0435,0.0411,0.0443,0.0462,0.0498,0.0551,0.0587,0.0639,0.0662,0.068,0.0693,0.0686,0.0672,0.0632,0.0625,0.0666,0.066,0.0711,0.0711,0.0711,0.0711,0,0.0243,0.0299,0.0311,0.0377,0.0388,0.0334,0.0364,0.0388,0.0372,0.0415,0.0422,0.0502,0.0553,0.0611,0.0652,0.0659,0.0701,0.0682,0.0628,0.061,0.0651,0.0648,0.067,0.0669,0.0669,0.0668,0.0668,0,0.0191,0.0215,0.0232,0.0247,0.0262,0.0254,0.0284,0.0299,0.0358,0.0411,0.0466,0.0507,0.0587,0.065,0.0643,0.0665,0.0677,0.0611,0.061,0.0666,0.065,0.0648,0.0646,0.0559,0.0558,0.0557,0.0556,0,0.0151,0.0133,0.0166,0.0185,0.0214,0.0247,0.0294,0.0338,0.0393,0.0452,0.0543,0.06,0.0622,0.0636,0.0607,0.0615,0.0618,0.0591,0.0665,0.0578,0.0561,0.0546,0.0547,0.0547,0.0548,0.0548,0.0549,0.0549,0.0094,0.0095,0.0164,0.0168,0.0211,0.0271,0.0298,0.0424,0.0491,0.0571,0.0612,0.0662,0.0641,0.0613,0.0591,0.0525,0.0561,0.0544,0.0547,0.0551,0.054,0.0524,0.05,0.05,0.0501,0.0501,0.0502,0,0.0084,0.0136,0.0187,0.0221,0.0281,0.0281,0.0379,0.0436,0.0538,0.0589,0.0654,0.0628,0.0627,0.0588,0.0477,0.0453,0.0438,0.0436,0.043,0.0438,0.0446,0.043,0.036,0.036,0.036,0.0359,0,0,0.0113,0.0159,0.0226,0.0335,0.035,0.0426,0.046,0.0506,0.0547,0.0598,0.0605,0.067,0.0625,0.0537,0.0486,0.041,0.0426,0.0387,0.05,0.0505,0.0513,0.0505,0.049,0,0,0,0,0]}],[{"header":{"parameterUnit":"m.s-1","parameterCategory":2,"la1":30.2991,"la2":30.254,"lo1":-89.0895,"lo2":-89.0444,"dy":0.0017,"dx":0.0017,"nx":28,"ny":28,"refTime":"2025-02-28T09:00:00:Z","depth":"4","parameterNumber":2,"parameterNumberName":"U-component_of_CURRENTS"},"data":[0,0,0,0,0,0,0,0,0,0,0,0,0,0,0,0,0,0,0,0,0,0,0,0,0,0,0,0,0,0,0,0,0,0,0,0,0,0,0,0,0,0,0,0,0,0,0,0,0,0,0,0,0,0,0,0,0,0,-0.0421,-0.0422,0,-0.0468,-0.0469,-0.0469,-0.0495,-0.0495,-0.0495,-0.0495,-0.0527,-0.0528,-0.0529,0,0,0,0,0,0,0,0,0,0,0,0,0,-0.0389,-0.0389,-0.0421,-0.0422,-0.0423,-0.0468,-0.0469,-0.0469,-0.0495,-0.0495,-0.0495,-0.0495,-0.0527,-0.0528,-0.0529,0,0,0,0,0,0,0,0,0,0,0,0,0,-0.0416,-0.0389,-0.0421,-0.0441,-0.0444,-0.0468,-0.0469,-0.0469,-0.0495,-0.0495,-0.0495,-0.0496,-0.0527,-0.0528,-0.0529,-0.0533,0,0,-0.0532,-0.0533,0,0,0,0,0,0,0,0,-0.0414,-0.0417,-0.0438,-0.044,-0.0443,-0.0476,-0.0469,-0.049,-0.0495,-0.0475,-0.0495,-0.0496,-0.0509,-0.0512,-0.052,-0.0534,-0.0535,-0.0532,-0.0533,-0.0534,-0.0534,0,0,0,0,0,0,0,-0.0412,-0.0415,-0.0439,-0.0438,-0.0441,-0.046,-0.0463,-0.0473,-0.049,-0.0477,-0.0479,-0.0485,-0.051,-0.0519,-0.0521,-0.0536,-0.0532,-0.0533,-0.0534,-0.0535,-0.0489,-0.0487,0,0,0,0,0,0,-0.0405,-0.0413,-0.0438,-0.0441,-0.0429,-0.046,-0.0464,-0.0465,-0.049,-0.0495,-0.0485,-0.0486,-0.0517,-0.0519,-0.0522,-0.0492,-0.0534,-0.0535,-0.0535,-0.0491,-0.0489,-0.0487,0,0,0,0,0,0,-0.0404,-0.0407,-0.0436,-0.0429,-0.0434,-0.046,-0.0461,-0.0466,-0.0484,-0.0496,-0.05,-0.0499,-0.0517,-0.052,-0.0547,-0.0494,-0.0535,-0.0536,-0.0493,-0.049,-0.0488,-0.0454,0,0,0,0,0,0,-0.0403,-0.0406,-0.0413,-0.0428,-0.0434,-0.0459,-0.0461,-0.0467,-0.0487,-0.049,-0.051,-0.0513,-0.0517,-0.0545,-0.0548,-0.0497,-0.0537,-0.0496,-0.0492,-0.0489,-0.0457,-0.045,-0.0444,0,0,0,0,0,-0.0402,-0.0412,-0.0413,-0.0417,-0.044,-0.0459,-0.0464,-0.0483,-0.0488,-0.05,-0.0518,-0.0513,-0.0522,-0.0547,-0.055,-0.0497,-0.0497,-0.0493,-0.0489,-0.046,-0.0452,-0.0444,0,0,0,0,0,0,-0.0407,-0.0416,-0.0418,-0.0432,-0.0446,-0.0464,-0.0481,-0.0489,-0.0512,-0.0517,-0.0525,-0.053,-0.052,-0.0521,-0.0547,-0.0468,-0.0493,-0.049,-0.047,-0.0462,-0.0456,-0.0453,-0.0538,0,0,0,0,0,-0.0408,-0.0417,-0.0428,-0.0441,-0.0448,-0.0464,-0.0477,-0.0488,-0.0507,-0.0518,-0.0531,-0.0524,-0.0501,-0.0498,-0.0494,-0.0478,-0.0508,-0.0432,-0.0425,-0.042,-0.0416,-0.0429,-0.0424,-0.0473,-0.0473,-0.0473,0,0,-0.0416,-0.0421,-0.0429,-0.0443,-0.0455,-0.0468,-0.0473,-0.0495,-0.0502,-0.0516,-0.0538,-0.052,-0.0496,-0.0468,-0.0458,-0.0466,-0.0426,-0.0414,-0.041,-0.041,-0.0424,-0.042,-0.0416,-0.047,-0.047,-0.0471,0,0,-0.0429,-0.0437,-0.0446,-0.0455,-0.0472,-0.0483,-0.0489,-0.051,-0.0516,-0.0525,-0.0517,-0.0492,-0.0474,-0.0445,-0.0422,-0.038,-0.0398,-0.0343,-0.0304,-0.0316,-0.0313,-0.031,-0.0372,-0.0375,-0.0331,-0.0331,-0.0331,0,-0.0437,-0.0445,-0.0454,-0.0461,-0.0473,-0.0488,-0.05,-0.0507,-0.0534,-0.0524,-0.0526,-0.0468,-0.0457,-0.0399,-0.036,-0.0366,-0.0388,-0.0341,-0.0311,-0.0308,-0.0307,-0.037,-0.0374,-0.0329,-0.0329,-0.0329,-0.0329,0,-0.0449,-0.0459,-0.0467,-0.0477,-0.0492,-0.0507,-0.0515,-0.0521,-0.0517,-0.0508,-0.0465,-0.0447,-0.0395,-0.0365,-0.0343,-0.0289,-0.0317,-0.0313,-0.034,-0.03,-0.0369,-0.0374,-0.0326,-0.0326,-0.0327,-0.0328,0,0,-0.0451,-0.0471,-0.0474,-0.0476,-0.0501,-0.0509,-0.0515,-0.051,-0.0491,-0.0481,-0.0452,-0.0375,-0.034,-0.031,-0.0273,-0.0266,-0.0272,-0.0262,-0.0263,-0.0339,-0.0327,-0.0272,-0.0273,-0.0254,-0.0254,-0.0253,-0.0393,0,-0.0457,-0.047,-0.0484,-0.0499,-0.0506,-0.0513,-0.0508,-0.05,-0.0484,-0.0463,-0.0414,-0.0365,-0.0324,-0.0272,-0.0258,-0.0266,-0.0277,-0.0237,-0.0339,-0.0343,-0.0311,-0.0273,-0.0253,-0.0396,-0.0398,-0.0399,-0.0399,0,-0.0458,-0.0466,-0.0484,-0.0488,-0.049,-0.0496,-0.0479,-0.0469,-0.0434,-0.0408,-0.0351,-0.0326,-0.0281,-0.0261,-0.0276,-0.0246,-0.027,-0.0297,-0.0303,-0.0262,-0.0294,-0.0434,-0.0409,-0.0408,-0.0407,-0.0407,-0.0406,0,-0.0443,-0.0462,-0.0475,-0.0481,-0.0488,-0.048,-0.0469,-0.0441,-0.041,-0.0361,-0.0336,-0.0298,-0.0262,-0.0288,-0.0306,-0.0283,-0.037,-0.0361,-0.0357,-0.0358,-0.0389,-0.0389,-0.0389,-0.0389,-0.0388,-0.0388,-0.0388,0,-0.0436,-0.0444,-0.0462,-0.0464,-0.0453,-0.0452,-0.0419,-0.0393,-0.0348,-0.03,-0.0284,-0.0241,-0.0255,-0.0296,-0.0332,-0.0359,-0.0393,-0.0348,-0.037,-0.0374,-0.0371,-0.0395,-0.0394,-0.0393,-0.0392,-0.0391,-0.039,0,-0.0417,-0.0435,-0.0439,-0.0447,-0.0447,-0.0422,-0.0387,-0.0348,-0.0307,-0.0254,-0.0229,-0.02,-0.0212,-0.029,-0.035,-0.0372,-0.0431,-0.0441,-0.0483,-0.0509,-0.0418,-0.0414,-0.0448,-0.0446,-0.0445,-0.0444,-0.0444,0,-0.0408,-0.0414,-0.0426,-0.042,-0.0423,-0.0392,-0.0365,-0.0318,-0.0277,-0.0214,-0.0189,-0.0179,-0.0169,-0.0247,-0.0309,-0.0428,-0.0415,-0.0488,-0.039,-0.0396,-0.0416,-0.0413,-0.041,-0.0442,-0.0442,-0.0442,-0.0441,0,-0.0391,-0.04,-0.0406,-0.038,-0.0362,-0.0342,-0.0301,-0.0265,-0.0198,-0.0196,-0.0106,-0.0107,-0.0133,-0.0177,-0.0279,-0.0354,-0.0459,-0.0476,-0.0478,-0.0387,-0.039,-0.041,-0.0408,-0.0438,-0.0438,-0.0438,-0.0439,0,-0.0378,-0.0373,-0.0364,-0.0322,-0.031,-0.0267,-0.0264,-0.0202,-0.0148,-0.009,-0.0059,-0.007,-0.0077,-0.0139,-0.0233,-0.03,-0.0284,-0.0307,-0.0316,-0.0322,-0.0215,-0.0197,-0.0197,0,0,0,0,0,-0.0348,-0.0319,-0.03,-0.026,-0.0243,-0.0212,-0.0204,-0.0198,-0.0163,-0.0083,-0.0055,-0.0061,-0.0093,-0.0111,-0.0158,-0.0225,-0.0331,-0.0286,-0.0371,-0.0417,-0.0422,-0.0308,0,0,0,0,0,0,-0.0331,-0.0313,-0.0277,-0.0185,-0.0145,-0.0114,-0.0096,-0.0091,-0.0048,-0.0027,-0.0042,-0.0052,-0.01,-0.0043,-0.014,-0.0163,-0.022,-0.0314,-0.0315,-0.0415,-0.0419,-0.0422,-0.0307,0,0,0,0,0]},{"header":{"parameterUnit":"m.s-1","parameterCategory":2,"la1":30.2991,"la2":30.254,"lo1":-89.0895,"lo2":-89.0444,"dy":0.0017,"dx":0.0017,"nx":28,"ny":28,"refTime":"2025-02-28T09:00:00:Z","depth":"4","parameterNumber":3,"parameterNumberName":"V-component_of_CURRENTS"},"data":[0,0,0,0,0,0,0,0,0,0,0,0,0,0,0,0,0,0,0,0,0,0,0,0,0,0,0,0,0,0,0,0,0,0,0,0,0,0,0,0,0,0,0,0,0,0,0,0,0,0,0,0,0,0,0,0,0,0,0.0499,0.0499,0,0.052,0.0521,0.0521,0.056,0.0561,0.0561,0.0562,0.0689,0.0692,0.0695,0,0,0,0,0,0,0,0,0,0,0,0,0,0.0471,0.0471,0.0499,0.0499,0.0499,0.052,0.0521,0.0521,0.056,0.0561,0.0561,0.0562,0.0688,0.0692,0.0695,0,0,0,0,0,0,0,0,0,0,0,0,0,0.0488,0.0471,0.0499,0.052,0.0522,0.052,0.0521,0.0521,0.056,0.0561,0.0562,0.0562,0.0687,0.0691,0.0695,0.0702,0,0,0.0708,0.071,0,0,0,0,0,0,0,0,0.0487,0.0489,0.0517,0.0519,0.0521,0.0537,0.0557,0.0587,0.0559,0.0547,0.0562,0.0563,0.0647,0.0654,0.0656,0.0708,0.0714,0.0709,0.0711,0.0713,0.0714,0,0,0,0,0,0,0,0.0486,0.0488,0.0509,0.0517,0.052,0.0521,0.0525,0.0563,0.0594,0.0548,0.0551,0.0551,0.0649,0.0652,0.066,0.0715,0.0709,0.0712,0.0715,0.0716,0.0773,0.0772,0,0,0,0,0,0,0.0481,0.0487,0.0508,0.0509,0.0505,0.0521,0.0526,0.0532,0.0591,0.06,0.055,0.0552,0.0645,0.0655,0.0665,0.0704,0.0713,0.0717,0.0719,0.0774,0.0773,0.0772,0,0,0,0,0,0,0.048,0.0483,0.0507,0.0497,0.05,0.0521,0.0528,0.0532,0.055,0.0591,0.0603,0.0565,0.0646,0.0659,0.0732,0.0708,0.0719,0.0723,0.0776,0.0774,0.0773,0.0765,0,0,0,0,0,0,0.0479,0.0482,0.0489,0.0497,0.0501,0.0511,0.0527,0.0532,0.0547,0.0551,0.0608,0.062,0.0647,0.0726,0.0736,0.0714,0.0726,0.0777,0.0775,0.0773,0.0766,0.0763,0.076,0,0,0,0,0,0.0478,0.0483,0.0489,0.0492,0.0508,0.0511,0.0513,0.0531,0.0547,0.0552,0.0612,0.0619,0.0718,0.0731,0.0743,0.0721,0.0778,0.0775,0.0773,0.0767,0.0764,0.076,0,0,0,0,0,0,0.0476,0.0487,0.0495,0.0504,0.0508,0.0517,0.0526,0.0535,0.0581,0.06,0.0642,0.0659,0.07,0.0715,0.0726,0.0725,0.0734,0.0734,0.0725,0.0722,0.0719,0.0716,0.0729,0,0,0,0,0,0.0476,0.0486,0.0491,0.05,0.0504,0.0516,0.0522,0.0534,0.057,0.059,0.0633,0.0669,0.0693,0.0717,0.0744,0.077,0.0766,0.0749,0.0746,0.0744,0.0746,0.0695,0.0688,0.0765,0.0765,0.0765,0,0,0.0479,0.0485,0.0492,0.05,0.051,0.0513,0.0524,0.0537,0.0561,0.0599,0.0661,0.0674,0.0699,0.0723,0.0738,0.0741,0.0726,0.0741,0.0739,0.0743,0.0692,0.0685,0.0678,0.0763,0.0763,0.0764,0,0,0.0479,0.0494,0.0499,0.0504,0.0515,0.052,0.0525,0.0545,0.058,0.0639,0.065,0.066,0.0727,0.0714,0.0722,0.0717,0.0715,0.0707,0.0697,0.0647,0.0641,0.0635,0.0654,0.0649,0.0703,0.0703,0.0703,0,0.0481,0.0491,0.05,0.0503,0.0514,0.0524,0.0533,0.0561,0.0608,0.0634,0.0667,0.0695,0.0717,0.0703,0.0699,0.071,0.0706,0.0714,0.0644,0.0638,0.0632,0.0652,0.0647,0.0702,0.0702,0.0702,0.0702,0,0.0481,0.0492,0.0497,0.0507,0.0517,0.0528,0.0559,0.059,0.0635,0.0651,0.0679,0.07,0.0706,0.069,0.0712,0.0654,0.0675,0.0649,0.0656,0.0624,0.0648,0.0643,0.0701,0.0701,0.0701,0.0702,0,0,0.0477,0.0494,0.0498,0.0508,0.0527,0.0534,0.058,0.0609,0.063,0.0671,0.0684,0.07,0.0684,0.0687,0.0669,0.0626,0.0594,0.0624,0.0621,0.0651,0.0533,0.0501,0.0494,0.0549,0.0547,0.0546,0.058,0,0.0477,0.0488,0.0499,0.0517,0.0527,0.0556,0.0599,0.0629,0.0661,0.0676,0.0674,0.0685,0.0689,0.0682,0.0636,0.0602,0.0575,0.0591,0.0553,0.0554,0.0533,0.0483,0.054,0.0576,0.0575,0.0575,0.0574,0,0.0475,0.0484,0.0508,0.0538,0.0548,0.0574,0.0623,0.0663,0.0681,0.0707,0.0687,0.0673,0.0636,0.0631,0.0573,0.0584,0.0563,0.0537,0.0537,0.0503,0.051,0.0605,0.0566,0.0566,0.0567,0.0568,0.0568,0,0.0477,0.0491,0.0517,0.0526,0.0561,0.0607,0.0649,0.0684,0.0728,0.0719,0.071,0.0665,0.066,0.06,0.0568,0.0567,0.0498,0.0487,0.0447,0.0449,0.0476,0.0482,0.0429,0.0429,0.0429,0.0429,0.0429,0,0.0477,0.0495,0.0531,0.0549,0.0599,0.0635,0.0698,0.0726,0.0759,0.0759,0.0728,0.0691,0.0645,0.0597,0.0558,0.0499,0.0498,0.0442,0.0432,0.0478,0.0483,0.0476,0.0481,0.043,0.043,0.043,0.0429,0,0.048,0.0501,0.053,0.0582,0.0609,0.0663,0.0757,0.0786,0.0815,0.0803,0.08,0.0742,0.066,0.0609,0.0526,0.0504,0.0437,0.0415,0.0515,0.0513,0.0436,0.0441,0.0378,0.0377,0.0376,0.0375,0.0374,0,0.0483,0.05,0.0557,0.0595,0.0634,0.0717,0.0772,0.0832,0.084,0.081,0.0779,0.0713,0.0647,0.0535,0.048,0.0414,0.0392,0.0411,0.0375,0.0422,0.042,0.0427,0.0432,0.0372,0.0372,0.0372,0.0371,0,0.0481,0.0511,0.0532,0.0618,0.0686,0.0728,0.0799,0.0804,0.0827,0.0835,0.0742,0.0669,0.0571,0.0493,0.0452,0.0394,0.042,0.0399,0.0401,0.0367,0.0415,0.0415,0.0422,0.0367,0.0368,0.0368,0.0369,0,0.0486,0.0494,0.0544,0.062,0.0695,0.072,0.0756,0.0755,0.0777,0.0731,0.0698,0.0593,0.0566,0.0481,0.0427,0.0378,0.0358,0.0373,0.0376,0.038,0.0352,0.0411,0.0344,0,0,0,0,0,0.0483,0.0491,0.0545,0.0598,0.0674,0.0719,0.0753,0.0771,0.0766,0.0695,0.0704,0.0593,0.0491,0.0453,0.0389,0.0396,0.0354,0.0326,0.0374,0.0345,0.035,0.031,0,0,0,0,0,0,0.0475,0.0514,0.0524,0.0583,0.0621,0.0676,0.0701,0.069,0.0654,0.0643,0.0583,0.0588,0.0483,0.0508,0.0384,0.0371,0.04,0.0289,0.0289,0.0343,0.0347,0.0351,0.0311,0,0,0,0,0]}]]